Regional Weather Roundup
Issued by NWS Sterling, VA

Home | Current Version | Previous Version | Graphics & Text | Print | Product List | Glossary On
Versions: 1 2 3 4 5 6 7 8 9 10 11 12 13 14 15 16 17 18 19 20 21 22 23 24 25 26 27
000
ASUS41 KLWX 281611
RWRLWX

REGIONAL WEATHER ROUNDUP
NATIONAL WEATHER SERVICE BALTIMORE MD/WASHINGTON DC
1200 PM EDT THU APR 28 2016

Note: "FAIR" indicates few or no clouds below 12,000 feet
with no significant weather and/or obstructions to visibility.
 TC=TEMPERATURE CELSIUS

 * =Non NWS site. Station does not report precipitation (e.g. rain,
    snow, etc.), thunder, or fog.

DCZ001-MDZ009-015-VAZ040>042-051-053>054-281700-
WASHINGTON METRO

CITY           SKY/WX    TMP DP  RH WIND       PRES   REMARKS
WASHINGTON NAT LGT RAIN  54  51  90 E10       30.00S FOG
DULLES         LGT RAIN  52  50  93 E12       29.98F FOG
ANDREWS AFB    LGT RAIN  52  50  93 E10       29.99F FOG
FT BELVOIR     CLOUDY    53  51  93 VRB5      29.98F
QUANTICO       CLOUDY    56  52  86 E8        30.00S
COLLEGE PARK*  CLOUDY    50  46  87 NE6       30.00F
LEESBURG*      CLOUDY    52  52 100 NE8       30.01R FOG
GAITHERSBURG*  CLOUDY    50  45  81 CALM      30.05R

$$

MDZ006>007-011-014-281700-
BALTIMORE METRO

CITY           SKY/WX    TMP DP  RH WIND       PRES   REMARKS
BWI AIRPORT    RAIN      50  47  89 E12       30.02R FOG
MD SCIENCE CTR   N/A     52  44  74 MISG      30.03R
MARTIN STATE   RAIN      54  50  87 E7        30.04R
ANNAPOLIS      LGT RAIN  53  49  86 NE6       30.02S FOG
FORT MEADE*    CLOUDY    50  46  87 E6        30.05R

$$

MDZ012-015-019>023-281700-
MARYLAND EASTERN SHORE

CITY           SKY/WX    TMP DP  RH WIND       PRES   REMARKS
OCEAN CITY     LGT RAIN  51  49  92 NE12      30.02S FOG
SALISBURY      LGT RAIN  52  50  93 E9        30.00F FOG
CAMBRIDGE*     CLOUDY    52  50  93 SE7       30.00S
EASTON*        LGT RAIN N/A N/A N/A SE5       30.05R

$$

MDZ017>025-281700-
SOUTHERN MARYLAND

CITY           SKY/WX    TMP DP  RH WIND       PRES   REMARKS
PATUXENT RIVER CLOUDY    53  49  86 E12       30.00S
ST INIGOES     CLOUDY    53  51  93 NE8       29.98F FOG
LEONARDTOWN*   CLOUDY    52  50  93 E6        30.01S

$$

MDZ003>005-281700-
NORTH CENTRAL MARYLAND

CITY           SKY/WX    TMP DP  RH WIND       PRES   REMARKS
FREDERICK*     CLOUDY    48  46  93 NE8       30.05S FOG
HAGERSTOWN APT CLOUDY    51  44  77 E8        30.00R
WESTMINSTER*   RAIN      45  43  93 E9        30.01F

$$

MDZ501>502-281700-
WESTERN MARYLAND

CITY           SKY/WX    TMP DP  RH WIND       PRES   REMARKS
OAKLAND*       CLOUDY    45  45 100 SE16      29.93S
CUMBERLAND*    CLOUDY    54  54 100 NE3       30.01S

$$

VAZ025>031-281700-
SHENANDOAH VALLEY

CITY           SKY/WX    TMP DP  RH WIND       PRES   REMARKS
WINCHESTER*    CLOUDY    54  52  94 E5        29.98S
FRONT ROYAL*   CLOUDY    54  52  94 E8        29.95S
LURAY*         CLOUDY    55  55 100 N6        29.95S
NEW MARKET*    CLOUDY    54  53  96 N5        29.95S
STAUNTON*      CLOUDY    62  61  96 CALM      29.94F FOG
WAYNESBORO*    CLOUDY    60  56  87 MISG      29.94S

$$

WVZ021-048>050-054>055-281700-
EASTERN WEST VIRGINIA PANHANDLE

CITY           SKY/WX    TMP DP  RH WIND       PRES   REMARKS
MARTINSBURG    CLOUDY    52  49  89 E6        29.98S FOG
PETERSBURG*    CLOUDY    55  53  95 N3        29.96R FOG

$$

VAZ036>039-050-281700-
CENTRAL FOOTHILLS

CITY           SKY/WX    TMP DP  RH WIND       PRES   REMARKS
CHARLOTTESVILL CLOUDY    57  54  89 E8        29.96S FOG
CULPEPER*      CLOUDY    56  54  94 CALM      30.00R
ORANGE*        DRIZZLE   55  55 100 CALM      29.99S
GORDONSVILLE*  CLOUDY    56  55  99 NE3       29.97S FOG
WARRENTON*     CLOUDY    56  50  80 E3        29.99R

$$

VAZ055>057-281700-
NORTH AND CENTRAL PIEDMONT

CITY           SKY/WX    TMP DP  RH WIND       PRES   REMARKS
FREDERICKSBRG* CLOUDY    55  55 100 E7        29.98R
STAFFORD*      CLOUDY    54  51  90 E7        30.02S

$$

NCZ024-NYZ072-PAZ021-071-VAZ022-071-281700-
OTHER REGIONAL OBSERVATIONS

CITY           SKY/WX    TMP DP  RH WIND       PRES   REMARKS
NEW YORK CITY  CLOUDY    56  24  29 VRB3      30.09R
PHILADELPHIA   CLOUDY    56  32  40 E12       30.04F
PITTSBURGH     RAIN      50  46  86 NE8       29.89R FOG
ROANOKE        FAIR      70  62  76 SE8       29.93F
RICHMOND       CLOUDY    56  56 100 E7        29.96R FOG
RALEIGH        CLOUDY    73  64  73 CALM      29.92F

$$

ANZ530>537-281700-
MARINE OBSERVATIONS

STATION/POSITION TIME  TEMP    WIND        PRES
                       AIR SEA DIR/SP/G
                 (UTC) (F)     (DEG/KT/KT) (MB)
THOMAS PT LIGHT  1600   53 58   80/  5/  6 1017.8R
BALT KEY BRIDGE  1500   54      70/ 12/ 14 1015.9R
COVE POINT       1500   51     130/  4/  7 1016.7R
LEWISETTA        1500   54 61   90/ 11/ 13 1015.4R
SOLOMONS ISLAND  1500   53 62   90/ 10/ 12   N/A

$$





USA.gov is the U.S. government's official web portal to all federal, state and local government web resources and services.